[[[{"header":{"parameterUnit":"kt","parameterCategory":2,"dx":1,"dy":1,"la1":30.253999710083008,"la2":30.299108505249023,"lo1":-89.0895004272461,"lo2":-89.04439544677734,"nx":28,"ny":28,"refTime":"2022-09-27T21:00:00:Z","depth":0,"parameterNumber":1,"parameterNumberName":"U-component_of_WINDS"},"data":[-10.7856,-10.8047,-10.803,-10.8238,-10.8257,-10.8396,-10.8439,-10.8493,-10.853,-10.8691,-10.8779,-10.8778,-10.8805,-10.8904,-10.8997,-10.8993,-10.9035,-10.9116,-10.9098,-10.8753,-10.8704,-10.8657,-10.8612,-10.9125,-10.9126,-10.9459,-10.9462,-10.9465,-10.7604,-10.7626,-10.7731,-10.7821,-10.791,-10.7821,-10.7884,-10.7964,-10.8089,-10.8136,-10.8222,-10.8361,-10.8467,-10.8466,-10.8564,-10.865,-10.8613,-10.8678,-10.8672,-10.8678,-10.8307,-10.826,-10.8707,-10.8707,-10.8706,-10.8706,-10.8706,-10.8706,-10.7142,-10.7258,-10.7301,-10.7415,-10.7454,-10.7514,-10.7619,-10.7616,-10.7716,-10.7819,-10.7774,-10.7915,-10.7956,-10.8063,-10.8093,-10.82,-10.8123,-10.8188,-10.8205,-10.8222,-10.8246,-10.7769,-10.8215,-10.8213,-10.8212,-10.8211,-10.821,0,-10.6798,-10.6776,-10.6875,-10.697,-10.7051,-10.7121,-10.7182,-10.7246,-10.7187,-10.7273,-10.7394,-10.746,-10.7589,-10.77,-10.7786,-10.7803,-10.7717,-10.7705,-10.775,-10.7776,-10.7788,-10.7786,-10.7184,-10.7693,-10.7688,-10.7685,-10.7683,-10.7681,-10.6332,-10.6469,-10.6504,-10.6576,-10.6605,-10.6722,-10.6787,-10.6724,-10.6796,-10.686,-10.6963,-10.7072,-10.7157,-10.7352,-10.7343,-10.7439,-10.7398,-10.7595,-10.7412,-10.7431,-10.7403,-10.7397,-10.741,-10.7633,-10.7639,-10.7644,-10.7648,0,-10.6072,-10.604,-10.6244,-10.6265,-10.6274,-10.6419,-10.6435,-10.6546,-10.6529,-10.6678,-10.6709,-10.6683,-10.6801,-10.676,-10.6886,-10.6861,-10.7097,-10.7053,-10.7082,-10.7072,-10.7245,-10.7231,-10.7812,-10.7885,-10.735,-10.7355,-10.736,0,-10.5663,-10.5843,-10.5785,-10.5905,-10.6102,-10.6035,-10.6232,-10.6236,-10.6271,-10.6388,-10.6284,-10.6396,-10.6324,-10.643,-10.6392,-10.6577,-10.66,-10.6592,-10.658,-10.6603,-10.6605,-10.6641,-10.6617,-10.6546,-10.6543,-10.654,-10.6538,0,-10.5261,-10.5439,-10.5634,-10.5669,-10.5708,-10.5801,-10.5821,-10.5858,-10.5922,-10.5997,-10.6038,-10.613,-10.6181,-10.6253,-10.6205,-10.6082,-10.6429,-10.625,-10.6421,-10.6423,-10.6501,-10.6498,-10.7021,-10.6534,-10.6534,-10.6533,-10.6532,0,-10.4925,-10.5006,-10.5292,-10.5322,-10.5371,-10.5498,-10.5585,-10.5684,-10.5731,-10.5716,-10.5775,-10.57,-10.5857,-10.5683,-10.5899,-10.5753,-10.5809,-10.5815,-10.5826,-10.584,-10.5647,-10.5951,-10.6451,-10.6503,-10.5849,-10.5844,-10.5838,0,-10.4475,-10.4754,-10.4699,-10.4971,-10.5094,-10.497,-10.5109,-10.5154,-10.5145,-10.5247,-10.5235,-10.5352,-10.5213,-10.5244,-10.5355,-10.5349,-10.5538,-10.5322,-10.5469,-10.5475,-10.5463,-10.5923,-10.6009,-10.6346,-10.5765,-10.5773,-10.5778,0,-10.4121,-10.4168,-10.4221,-10.4259,-10.4308,-10.441,-10.4569,-10.467,-10.4741,-10.4802,-10.4934,-10.5094,-10.4997,-10.5048,-10.4997,-10.5116,-10.5408,-10.4995,-10.4995,-10.5072,-10.5724,-10.5805,-10.5862,-10.5347,-10.5355,-10.5362,-10.572,0,-10.3626,-10.3761,-10.3901,-10.3987,-10.4059,-10.4226,-10.4183,-10.4264,-10.4208,-10.4195,-10.4387,-10.4412,-10.4513,-10.4565,-10.4511,-10.4795,-10.4741,-10.4636,-10.4465,-10.4766,-10.4883,-10.4931,-10.4295,-10.4289,-10.4285,-10.4281,0,0,-10.3204,-10.3396,-10.333,-10.3483,-10.354,-10.3408,-10.3591,-10.363,-10.3713,-10.3755,-10.3658,-10.389,-10.3914,-10.4152,-10.4243,-10.4283,-10.433,-10.4226,-10.4623,-10.4661,-10.4697,-10.4822,-10.4872,-10.4273,-10.4272,-10.427,-10.4269,0,-10.3015,-10.3045,-10.3227,-10.3265,-10.3319,-10.3296,-10.334,-10.3369,-10.3369,-10.3557,-10.3445,-10.3554,-10.3741,-10.3782,-10.3827,-10.4196,-10.4105,-10.4229,-10.4444,-10.4579,-10.4624,-10.4663,-10.4795,-10.4844,-10.4258,-10.4258,-10.4259,0,-10.2661,-10.2684,-10.2767,-10.2889,-10.2923,-10.3052,-10.2862,-10.3006,-10.3101,-10.2948,-10.3136,-10.3144,-10.3194,-10.3425,-10.3526,-10.3441,-10.3904,-10.3749,-10.3776,-10.3787,-10.3916,-10.3969,-10.4016,-10.3392,-10.3389,-10.3387,0,0,-10.2503,-10.2628,-10.2631,-10.2845,-10.2874,-10.2843,-10.2907,-10.2858,-10.2907,-10.2927,-10.2935,-10.2985,-10.3092,-10.3165,-10.3263,-10.3521,-10.3527,-10.3644,-10.3685,-10.3719,-10.3748,-10.3886,-10.3938,-10.3376,-10.3376,-10.3376,0,0,-10.2427,-10.2441,-10.2376,-10.2619,-10.267,-10.2687,-10.2819,-10.2739,-10.2824,-10.28,-10.2722,-10.2732,-10.2945,-10.2957,-10.282,-10.3201,-10.3033,-10.3065,-10.3186,-10.3237,-10.3277,-10.3271,-10.2629,0,0,0,0,0,-10.2212,-10.2439,-10.238,-10.2414,-10.2568,-10.272,-10.2739,-10.2681,-10.2563,-10.2669,-10.2663,-10.2561,-10.2867,-10.2744,-10.2778,-10.2933,-10.3239,-10.3263,-10.3286,-10.3503,-10.3557,-10.3602,0,0,0,0,0,0,-10.2225,-10.2267,-10.2374,-10.2402,-10.2435,-10.2711,-10.2499,-10.249,-10.255,-10.2528,-10.2565,-10.2562,-10.2514,-10.2722,-10.2754,-10.2902,-10.2618,-10.3248,-10.3269,-10.3288,-10.3522,-10.3566,-10.3603,0,0,0,0,0,-10.2235,-10.2269,-10.2531,-10.2398,-10.2427,-10.2404,-10.249,-10.248,-10.2526,-10.2518,-10.2511,-10.2477,-10.252,-10.2543,-10.274,-10.2889,-10.2595,-10.2607,-10.3262,-10.3278,-10.3293,-10.3543,0,0,0,0,0,0,-10.2243,-10.2261,-10.2535,-10.2542,-10.2308,-10.2387,-10.2398,-10.2473,-10.251,-10.2506,-10.2424,-10.2407,-10.2527,-10.2543,-10.2561,-10.2888,-10.2577,-10.2589,-10.2597,-10.3274,-10.3287,-10.3298,0,0,0,0,0,0,-10.2242,-10.2267,-10.2539,-10.2429,-10.2422,-10.2373,-10.2382,-10.2541,-10.2512,-10.2414,-10.24,-10.2416,-10.2499,-10.2545,-10.2558,-10.2808,-10.2563,-10.2574,-10.2583,-10.2588,-10.3285,-10.3295,0,0,0,0,0,0,-10.2251,-10.2273,-10.2426,-10.2422,-10.2415,-10.2486,-10.2511,-10.2671,-10.242,-10.2414,-10.2395,-10.2384,-10.2504,-10.2516,-10.2557,-10.2802,-10.2807,-10.2563,-10.2571,-10.2577,-10.258,0,0,0,0,0,0,0,-10.2259,-10.2127,-10.2496,-10.2416,-10.241,-10.2604,-10.2606,-10.2608,-10.2417,-10.2407,-10.2398,-10.2389,-10.2495,-10.2508,-10.2521,-10.2797,0,0,-10.2562,-10.2568,0,0,0,0,0,0,0,0,-10.2117,-10.2125,-10.2496,-10.2498,-10.2499,-10.2605,-10.2606,-10.2608,-10.2415,-10.2408,-10.24,-10.2392,-10.2499,-10.2509,-10.252,0,0,0,0,0,0,0,0,0,0,0,0,0,0,0,-10.2496,-10.2498,0,-10.2605,-10.2606,-10.2607,-10.2414,-10.2408,-10.2401,-10.2395,-10.2502,-10.251,-10.2519,0,0,0,0,0,0,0,0,0,0,0,0,0,0,0,0,0,0,0,0,0,0,0,0,0,0,0,0,0,0,0,0,0,0,0,0,0,0,0,0,0,0,0,0,0,0,0,0,0,0,0,0,0,0,0,0,0,0,0,0,0,0,0,0,0,0,0,0,0]}],[{"header":{"parameterUnit":"kt","parameterCategory":2,"dx":1,"dy":1,"la1":30.253999710083008,"la2":30.299108505249023,"lo1":-89.0895004272461,"lo2":-89.04439544677734,"nx":28,"ny":28,"refTime":"2022-09-27T21:00:00:Z","depth":0,"parameterNumber":2,"parameterNumberName":"V-component_of_WINDS"},"data":[-17.6913,-17.7144,-17.7135,-17.7391,-17.7425,-17.7596,-17.7653,-17.7725,-17.7778,-17.7977,-17.8088,-17.8097,-17.8141,-17.8266,-17.8382,-17.8382,-17.8432,-17.8522,-17.8506,-17.8118,-17.8063,-17.8011,-17.7958,-17.8533,-17.8534,-17.891,-17.8913,-17.8916,-17.6631,-17.6669,-17.6802,-17.6924,-17.7037,-17.6945,-17.7031,-17.713,-17.7284,-17.735,-17.7459,-17.7631,-17.7763,-17.7775,-17.7898,-17.8,-17.7961,-17.8034,-17.8026,-17.8034,-17.7619,-17.7563,-17.8064,-17.8064,-17.8064,-17.8063,-17.8063,-17.8063,-17.6114,-17.6253,-17.6321,-17.6465,-17.6522,-17.6602,-17.673,-17.6739,-17.6865,-17.6997,-17.6955,-17.7126,-17.7186,-17.7326,-17.7368,-17.7498,-17.7414,-17.7488,-17.7507,-17.7526,-17.7551,-17.7012,-17.7518,-17.7516,-17.7515,-17.7513,-17.7512,0,-17.5732,-17.5716,-17.5842,-17.5966,-17.6069,-17.6162,-17.6245,-17.6323,-17.6274,-17.638,-17.653,-17.6614,-17.6776,-17.6913,-17.7023,-17.7051,-17.6961,-17.6949,-17.7,-17.7025,-17.7033,-17.7032,-17.6357,-17.6934,-17.6929,-17.6925,-17.6923,-17.6921,-17.5211,-17.5373,-17.5438,-17.5528,-17.557,-17.5715,-17.5798,-17.5743,-17.5833,-17.5923,-17.6044,-17.6181,-17.6288,-17.6526,-17.6527,-17.6647,-17.6603,-17.6826,-17.662,-17.6638,-17.6608,-17.6599,-17.6615,-17.6867,-17.6874,-17.688,-17.6884,0,-17.4918,-17.49,-17.5146,-17.5192,-17.5208,-17.5379,-17.5415,-17.5548,-17.554,-17.572,-17.5759,-17.5745,-17.5891,-17.5856,-17.6013,-17.599,-17.6265,-17.6219,-17.6245,-17.6234,-17.643,-17.6412,-17.7071,-17.7154,-17.6557,-17.6562,-17.6567,0,-17.4466,-17.4679,-17.4638,-17.4782,-17.5016,-17.4956,-17.5188,-17.5204,-17.5257,-17.5398,-17.5292,-17.5426,-17.536,-17.5488,-17.5454,-17.5672,-17.57,-17.5695,-17.5684,-17.5706,-17.5707,-17.5751,-17.5723,-17.5651,-17.5647,-17.5644,-17.5642,0,-17.401,-17.4237,-17.4471,-17.4519,-17.4588,-17.4697,-17.473,-17.4787,-17.4867,-17.4965,-17.5016,-17.5132,-17.5197,-17.5287,-17.5243,-17.5105,-17.5508,-17.5309,-17.5503,-17.5504,-17.5594,-17.5589,-17.6181,-17.5638,-17.5637,-17.5636,-17.5634,0,-17.3641,-17.3747,-17.4089,-17.4143,-17.4204,-17.4356,-17.447,-17.4592,-17.4659,-17.4649,-17.4724,-17.4648,-17.4835,-17.4641,-17.4897,-17.4731,-17.4799,-17.4811,-17.4824,-17.4839,-17.4622,-17.4962,-17.5529,-17.5587,-17.4852,-17.4845,-17.484,0,-17.3126,-17.3465,-17.3416,-17.374,-17.3892,-17.3763,-17.393,-17.3993,-17.3993,-17.4118,-17.4115,-17.4257,-17.4105,-17.4144,-17.4275,-17.4277,-17.4494,-17.4246,-17.4423,-17.443,-17.4411,-17.4932,-17.5026,-17.5408,-17.4756,-17.4764,-17.4771,0,-17.2723,-17.2807,-17.2869,-17.2921,-17.2998,-17.3122,-17.3314,-17.3443,-17.353,-17.3611,-17.3769,-17.3965,-17.3858,-17.3924,-17.3873,-17.4012,-17.4345,-17.3878,-17.3878,-17.3964,-17.471,-17.4798,-17.4863,-17.4279,-17.4289,-17.4298,-17.4704,0,-17.2172,-17.2338,-17.2503,-17.2621,-17.2712,-17.2913,-17.2879,-17.2978,-17.2922,-17.2917,-17.3147,-17.3187,-17.3314,-17.3377,-17.3321,-17.3651,-17.359,-17.3474,-17.3281,-17.3623,-17.3756,-17.3811,-17.3087,-17.3081,-17.3076,-17.3071,0,0,-17.1684,-17.1921,-17.1861,-17.2047,-17.212,-17.1983,-17.22,-17.2254,-17.2367,-17.2419,-17.2312,-17.2597,-17.2633,-17.2915,-17.3019,-17.307,-17.3125,-17.3007,-17.3461,-17.3504,-17.3545,-17.3688,-17.3745,-17.3063,-17.3061,-17.3059,-17.3057,0,-17.1476,-17.1524,-17.1741,-17.1795,-17.1874,-17.1858,-17.1911,-17.1963,-17.1969,-17.2195,-17.2075,-17.2208,-17.2436,-17.2491,-17.2549,-17.2972,-17.2873,-17.3013,-17.3254,-17.3412,-17.3462,-17.3506,-17.3657,-17.3713,-17.3045,-17.3046,-17.3047,0,-17.1074,-17.1116,-17.1217,-17.1378,-17.1427,-17.1585,-17.1376,-17.1551,-17.1666,-17.1503,-17.1728,-17.1745,-17.1814,-17.2086,-17.2206,-17.2111,-17.2646,-17.247,-17.25,-17.2512,-17.2663,-17.2724,-17.2778,-17.2069,-17.2066,-17.2063,0,0,-17.0899,-17.1053,-17.1077,-17.1331,-17.1371,-17.1351,-17.143,-17.1382,-17.145,-17.1478,-17.1498,-17.1565,-17.1696,-17.1784,-17.1906,-17.2209,-17.2217,-17.2351,-17.2397,-17.2435,-17.2468,-17.2629,-17.2689,-17.2051,-17.205,-17.205,0,0,-17.0813,-17.0854,-17.0786,-17.1076,-17.1148,-17.1186,-17.134,-17.1257,-17.1363,-17.1336,-17.1259,-17.1273,-17.1526,-17.1546,-17.1388,-17.1836,-17.1646,-17.1683,-17.1814,-17.1871,-17.1917,-17.1906,-17.1176,0,0,0,0,0,-17.0584,-17.0849,-17.0787,-17.0831,-17.1032,-17.1221,-17.1245,-17.1191,-17.1058,-17.1182,-17.1185,-17.1073,-17.1445,-17.1303,-17.1345,-17.1522,-17.1893,-17.1921,-17.1947,-17.2187,-17.2247,-17.2298,0,0,0,0,0,0,-17.0601,-17.0655,-17.078,-17.0831,-17.0875,-17.1211,-17.0974,-17.0967,-17.1044,-17.102,-17.1077,-17.1075,-17.1029,-17.1277,-17.1316,-17.1486,-17.1163,-17.1904,-17.1928,-17.1949,-17.2207,-17.2257,-17.23,0,0,0,0,0,-17.0614,-17.0657,-17.0995,-17.0826,-17.0865,-17.0856,-17.0964,-17.0956,-17.1014,-17.1019,-17.1014,-17.0966,-17.1036,-17.1064,-17.13,-17.147,-17.1136,-17.115,-17.192,-17.1938,-17.1955,-17.2232,0,0,0,0,0,0,-17.0623,-17.0649,-17.1002,-17.1011,-17.0723,-17.0836,-17.0852,-17.0947,-17.1006,-17.1005,-17.0902,-17.0883,-17.1044,-17.1064,-17.1087,-17.1468,-17.1113,-17.1128,-17.1138,-17.1934,-17.1948,-17.1961,0,0,0,0,0,0,-17.0625,-17.0658,-17.1006,-17.0879,-17.0873,-17.0818,-17.0832,-17.1023,-17.1008,-17.0886,-17.0871,-17.0893,-17.1007,-17.1066,-17.1083,-17.1382,-17.1096,-17.111,-17.112,-17.1127,-17.1946,-17.1957,0,0,0,0,0,0,-17.0638,-17.0666,-17.0876,-17.0872,-17.0866,-17.0969,-17.0984,-17.1192,-17.0904,-17.0885,-17.0876,-17.0863,-17.1012,-17.1028,-17.1081,-17.1374,-17.138,-17.1097,-17.1106,-17.1113,-17.1118,0,0,0,0,0,0,0,-17.0648,-17.0473,-17.0946,-17.0866,-17.086,-17.11,-17.1102,-17.1105,-17.0901,-17.089,-17.0879,-17.0868,-17.1014,-17.103,-17.1046,-17.1367,0,0,-17.1095,-17.1102,0,0,0,0,0,0,0,0,-17.046,-17.047,-17.0946,-17.0948,-17.095,-17.11,-17.1102,-17.1104,-17.0899,-17.089,-17.0881,-17.0873,-17.1018,-17.1031,-17.1044,0,0,0,0,0,0,0,0,0,0,0,0,0,0,0,-17.0946,-17.0948,0,-17.1101,-17.1102,-17.1104,-17.0898,-17.089,-17.0883,-17.0876,-17.1022,-17.1032,-17.1043,0,0,0,0,0,0,0,0,0,0,0,0,0,0,0,0,0,0,0,0,0,0,0,0,0,0,0,0,0,0,0,0,0,0,0,0,0,0,0,0,0,0,0,0,0,0,0,0,0,0,0,0,0,0,0,0,0,0,0,0,0,0,0,0,0,0,0,0,0]}]]]